EW4676 Weather Reports


time (UTC)temp
F
wind
direction
speed
knots
gust
knots
rain 1hr
in
rain 24hr
in
rain mn
in
humidity
%
barometer
mb
20260509211354 91 76 1.7 5.2 0.00 0.00 0.00 40 1007.9
20260509211349 90 136 0.9 6.1 0.00 0.00 0.00 40 1007.8
20260509210840 91 66 1.7 5.2 0.00 0.00 0.00 39 1007.9
20260509205829 90 349 1.7 3.5 0.00 0.00 0.00 38 1008.0
20260509205319 91 9 1.7 3.5 0.00 0.00 0.00 41 1008.1
20260509204801 91 8 1.7 6.1 0.00 0.00 0.00 36 1008.3
20260509204251 90 332 1.7 6.1 0.00 0.00 0.00 36 1008.3
20260509203733 90 352 0.9 3.5 0.00 0.00 0.00 41 1008.4
20260509203223 90 295 1.7 3.5 0.00 0.00 0.00 37 1008.5
20260509202711 90 257 1.7 6.1 0.00 0.00 0.00 39 1008.6
20260509202201 90 262 2.6 6.1 0.00 0.00 0.00 41 1008.7
20260509201650 91 11 3.5 7.8 0.00 0.00 0.00 39 1008.7
20260509201632 91 358 4.3 9.6 0.00 0.00 0.00 38 1008.8
20260509201236 91 13 4.3 7.8 0.00 0.00 0.00 41 1008.8
20260509200121 91 27 3.5 9.6 0.00 0.00 0.00 39 1008.8
20260509195611 91 343 1.7 6.1 0.00 0.00 0.00 43 1008.8
20260509195101 90 28 1.7 5.2 0.00 0.00 0.00 42 1008.9
20260509194552 91 22 1.7 6.1 0.00 0.00 0.00 40 1008.9
20260509194043 90 39 1.7 6.1 0.00 0.00 0.00 43 1009.0
20260509193533 89 60 3.5 7.8 0.00 0.00 0.00 41 1009.1
20260509193524 90 24 3.5 7.8 0.00 0.00 0.00 41 1009.1
20260509192513 90 8 3.5 6.1 0.00 0.00 0.00 43 1009.1
20260509192007 89 37 2.6 8.7 0.00 0.00 0.00 43 1009.1
20260509191458 88 85 2.6 8.7 0.00 0.00 0.00 46 1009.1
20260509190949 88 331 2.6 9.6 0.00 0.00 0.00 46 1009.2
20260509190439 89 285 2.6 9.6 0.00 0.00 0.00 47 1009.2
20260509185929 89 318 3.5 9.6 0.00 0.00 0.00 47 1009.3
20260509185419 88 45 2.6 9.6 0.00 0.00 0.00 44 1009.3
20260509185410 89 8 1.7 6.1 0.00 0.00 0.00 47 1009.3
20260509184403 89 343 3.5 6.1 0.00 0.00 0.00 46 1009.4
20260509183856 89 282 3.5 7.0 0.00 0.00 0.00 46 1009.4
20260509183851 89 23 2.6 7.8 0.00 0.00 0.00 46 1009.4
20260509183344 88 20 2.6 8.7 0.00 0.00 0.00 48 1009.4
20260509182333 88 16 4.3 10.4 0.00 0.00 0.00 46 1009.6
20260509182325 88 334 4.3 10.4 0.00 0.00 0.00 49 1009.6
20260509181321 87 14 2.6 8.7 0.00 0.00 0.00 48 1009.7
20260509181313 87 4 3.5 7.8 0.00 0.00 0.00 45 1009.8
20260509180309 87 279 4.3 7.8 0.00 0.00 0.00 48 1009.8
20260509175801 87 332 4.3 7.8 0.00 0.00 0.00 48 1009.7
20260509175257 87 39 3.5 9.6 0.00 0.00 0.00 46 1009.8
20260509174757 87 24 3.5 9.6 0.00 0.00 0.00 45 1009.8
20260509174254 87 26 3.5 8.7 0.00 0.00 0.00 47 1009.9
20260509174249 87 344 3.5 8.7 0.00 0.00 0.00 50 1009.9
20260509173247 86 25 4.3 9.6 0.00 0.00 0.00 47 1009.9
20260509172738 86 358 4.3 9.6 0.00 0.00 0.00 49 1010.0
20260509172237 87 43 3.5 8.7 0.00 0.00 0.00 47 1010.1
20260509171731 87 77 2.6 8.7 0.00 0.00 0.00 50 1010.1
20260509171229 86 16 1.7 7.8 0.00 0.00 0.00 50 1010.2
20260509170727 87 23 1.7 8.7 0.00 0.00 0.00 51 1010.2
20260509170213 85 359 2.6 9.6 0.00 0.00 0.00 48 1010.3
20260509165658 85 23 3.5 9.6 0.00 0.00 0.00 51 1010.3
20260509165156 85 0 3.5 7.8 0.00 0.00 0.00 52 1010.3
20260509165150 84 318 3.5 9.6 0.00 0.00 0.00 54 1010.3
20260509164148 84 345 3.5 8.7 0.00 0.00 0.00 54 1010.3
20260509164144 84 313 3.5 9.6 0.00 0.00 0.00 51 1010.4
20260509163126 83 12 2.6 8.7 0.00 0.00 0.00 54 1010.4
20260509163113 83 316 2.6 8.7 0.00 0.00 0.00 54 1010.4
20260509162717 83 22 2.6 8.7 0.00 0.00 0.00 53 1010.5
20260509161603 83 322 3.5 12.2 0.00 0.00 0.00 57 1010.3
20260509161057 82 307 3.5 9.6 0.00 0.00 0.00 55 1010.3
20260509160546 82 324 2.6 7.0 0.00 0.00 0.00 56 1010.3
20260509160532 81 24 2.6 7.0 0.00 0.00 0.00 58 1010.3
20260509160137 82 336 2.6 7.0 0.00 0.00 0.00 59 1010.3
20260509155009 81 330 3.5 9.6 0.00 0.00 0.00 61 1010.2
20260509154502 81 347 3.5 9.6 0.00 0.00 0.00 61 1010.2
20260509153952 81 351 3.5 7.8 0.00 0.00 0.00 61 1010.2
20260509153449 80 359 4.3 7.8 0.00 0.00 0.00 61 1010.2
20260509153429 80 326 3.5 9.6 0.00 0.00 0.00 62 1010.3
20260509153032 80 325 3.5 9.6 0.00 0.00 0.00 61 1010.3
20260509151917 80 4 3.5 8.7 0.00 0.00 0.00 61 1010.2
20260509151407 79 303 3.5 8.7 0.00 0.00 0.00 61 1010.2
20260509150857 79 317 2.6 8.7 0.00 0.00 0.00 61 1010.2
20260509150347 78 340 4.3 10.4 0.00 0.00 0.00 64 1010.3
20260509145837 78 1 4.3 10.4 0.00 0.00 0.00 63 1010.4
20260509145327 78 349 4.3 9.6 0.00 0.00 0.00 62 1010.4
20260509145318 78 359 3.5 10.4 0.00 0.00 0.00 64 1010.4
20260509144307 77 316 3.5 10.4 0.00 0.00 0.00 65 1010.4
20260509143756 77 309 3.5 8.7 0.00 0.00 0.00 66 1010.3
20260509143247 76 341 3.5 7.0 0.00 0.00 0.00 70 1010.4
20260509142736 76 312 2.6 7.8 0.00 0.00 0.00 72 1010.4
20260509142227 76 345 1.7 7.8 0.00 0.00 0.00 73 1010.4
20260509141716 75 321 1.7 5.2 0.00 0.00 0.00 72 1010.4
20260509141206 75 301 1.7 7.8 0.00 0.00 0.00 75 1010.4
20260509140655 74 320 1.7 7.8 0.00 0.00 0.00 74 1010.4
20260509140146 74 313 3.5 8.7 0.00 0.00 0.00 76 1010.3
20260509135636 73 359 3.5 8.7 0.00 0.00 0.00 76 1010.3
20260509135126 73 318 2.6 7.8 0.00 0.00 0.00 78 1010.2
20260509135117 72 351 2.6 6.1 0.00 0.00 0.00 78 1010.3
20260509134107 71 10 2.6 6.1 0.00 0.00 0.00 79 1010.1
20260509133556 71 2 2.6 7.0 0.00 0.00 0.00 80 1010.1
20260509133045 70 336 3.5 7.0 0.00 0.00 0.00 81 1010.2
20260509133034 70 357 3.5 8.7 0.00 0.00 0.00 81 1010.1
20260509132025 70 343 3.5 7.0 0.00 0.00 0.00 82 1010.1
20260509131514 70 349 3.5 7.0 0.00 0.00 0.00 82 1010.1
20260509131005 69 326 2.6 7.0 0.00 0.00 0.00 83 1010.0
20260509130454 69 336 2.6 7.0 0.00 0.00 0.00 83 1010.1
20260509130449 69 337 2.6 7.0 0.00 0.00 0.00 83 1010.0
20260509125934 68 332 3.5 9.6 0.00 0.00 0.00 83 1010.0
20260509124925 68 359 3.5 9.6 0.00 0.00 0.00 83 1010.0
20260509124414 68 347 4.3 9.6 0.00 0.00 0.00 83 1010.0
20260509123905 68 322 3.5 9.6 0.00 0.00 0.00 83 1010.0
20260509123354 68 322 3.5 7.8 0.00 0.00 0.00 83 1009.9
20260509122842 68 298 3.5 7.0 0.00 0.00 0.00 83 1009.9
20260509122332 68 262 3.5 7.0 0.00 0.00 0.00 83 1009.9
20260509122325 68 257 3.5 7.0 0.00 0.00 0.00 83 1009.8
20260509121815 68 332 3.5 6.1 0.00 0.00 0.00 83 1009.8
20260509120805 68 279 2.6 4.3 0.00 0.00 0.00 83 1009.8
20260509120758 68 280 1.7 3.5 0.00 0.00 0.00 83 1009.7
20260509120252 68 253 1.7 3.5 0.00 0.00 0.00 82 1009.7
20260509115249 69 248 0.9 2.6 0.00 0.00 0.00 82 1009.7
20260509114750 69 249 0.9 2.6 0.00 0.00 0.00 82 1009.6
20260509114250 69 249 0.9 2.6 0.00 0.00 0.00 82 1009.6
20260509113751 69 243 1.7 3.5 0.00 0.00 0.00 82 1009.5
20260509113729 69 253 0.9 3.5 0.00 0.00 0.00 82 1009.4
20260509113334 69 246 1.7 4.3 0.00 0.00 0.00 82 1009.4
20260509112717 69 217 0.9 3.5 0.00 0.00 0.00 82 1009.3
20260509111706 69 229 0.9 3.5 0.00 0.00 0.00 82 1009.2
20260509111146 69 214 0.9 4.3 0.00 0.00 0.00 83 1009.1
20260509110636 69 208 1.7 5.2 0.00 0.00 0.00 83 1009.1
20260509110127 69 225 1.7 5.2 0.00 0.00 0.00 83 1009.0
20260509105608 69 186 0.9 3.5 0.00 0.00 0.00 83 1009.0
20260509105058 69 247 1.7 4.3 0.00 0.00 0.00 83 1008.9
20260509105042 69 262 1.7 4.3 0.00 0.00 0.00 83 1008.9
20260509104030 69 252 1.7 4.3 0.00 0.00 0.00 84 1008.9
20260509104021 69 278 1.7 4.3 0.00 0.00 0.00 84 1009.0
20260509103511 69 253 1.7 3.5 0.00 0.00 0.00 84 1009.0
20260509102502 69 245 1.7 3.5 0.00 0.00 0.00 84 1008.9
20260509101944 70 313 0.9 3.5 0.00 0.00 0.00 85 1008.9
20260509101434 69 313 2.6 7.8 0.00 0.00 0.00 85 1008.9
20260509100924 69 311 3.5 7.8 0.00 0.00 0.00 85 1009.0
20260509100916 69 351 4.3 7.8 0.00 0.00 0.00 85 1009.0
20260509095905 69 13 3.5 9.6 0.00 0.00 0.00 85 1009.0
20260509095356 69 348 4.3 8.7 0.00 0.00 0.00 85 1008.4
20260509095347 69 20 4.3 11.3 0.00 0.00 0.00 85 1008.0
20260509094836 69 357 3.5 11.3 0.00 0.00 0.00 85 1007.8
20260509093826 69 186 5.2 13.9 0.00 0.00 0.00 85 1006.9
20260509093316 69 178 6.1 13.9 0.00 0.00 0.00 85 1006.8
20260509092804 69 172 6.1 13.0 0.00 0.00 0.00 85 1006.5
20260509092256 69 218 6.1 14.8 0.00 0.00 0.00 85 1006.3
20260509091752 69 170 7.0 14.8 0.00 0.00 0.00 85 1006.3
20260509091249 69 195 6.1 13.0 0.00 0.00 0.00 85 1006.5
20260509090741 69 181 7.0 14.8 0.00 0.00 0.00 85 1006.5
20260509090236 69 216 7.0 14.8 0.00 0.00 0.00 85 1006.7
20260509085731 69 182 6.1 15.6 0.00 0.00 0.00 85 1006.8
20260509085229 69 206 7.0 15.6 0.00 0.00 0.00 85 1006.9
20260509084726 69 202 7.8 16.5 0.00 0.00 0.00 85 1006.8
20260509084220 69 214 7.8 17.4 0.00 0.00 0.00 85 1006.6
20260509083713 69 140 7.0 17.4 0.00 0.00 0.00 85 1006.4
20260509083205 69 161 7.0 16.5 0.00 0.00 0.00 85 1006.7
20260509082702 69 218 7.0 16.5 0.00 0.00 0.00 85 1007.1
20260509082157 69 126 7.0 16.5 0.00 0.00 0.00 85 1007.4
20260509081653 69 211 6.1 16.5 0.00 0.00 0.00 84 1007.6
20260509081150 69 141 4.3 10.4 0.00 0.00 0.00 84 1007.9
20260509080647 69 132 3.5 9.6 0.00 0.00 0.00 84 1008.4
20260509080142 69 207 3.5 9.6 0.00 0.00 0.00 84 1008.7
20260509075638 69 193 3.5 9.6 0.00 0.00 0.00 84 1008.9
20260509075131 69 177 2.6 7.8 0.00 0.00 0.00 84 1009.3
20260509074626 69 225 2.6 7.0 0.00 0.00 0.00 84 1009.5
20260509074620 69 262 2.6 6.1 0.00 0.00 0.00 84 1009.7
20260509074112 69 208 2.6 7.8 0.00 0.00 0.00 84 1009.7
20260509073107 69 292 2.6 8.7 0.00 0.00 0.00 84 1010.1
20260509072600 69 192 2.6 8.7 0.00 0.00 0.00 84 1010.3
20260509072054 69 235 2.6 9.6 0.00 0.00 0.00 84 1010.3
20260509071548 69 283 3.5 9.6 0.00 0.00 0.00 84 1010.5
20260509071041 69 293 3.5 7.8 0.00 0.00 0.00 84 1010.8
20260509070532 69 286 3.5 7.8 0.00 0.00 0.00 84 1011.1
20260509070025 69 254 3.5 7.8 0.00 0.00 0.00 84 1011.2
20260509065520 69 307 3.5 8.7 0.00 0.00 0.00 84 1011.0
20260509065003 69 284 2.6 6.1 0.00 0.00 0.00 83 1011.0
20260509064455 69 262 1.7 4.3 0.00 0.00 0.00 83 1010.7
20260509063947 69 284 0.9 4.3 0.00 0.00 0.00 83 1010.7
20260509063439 69 1 0.0 2.6 0.00 0.00 0.00 83 1010.6
20260509062931 69 3 0.0 0.9 0.00 0.00 0.00 83 1010.6
20260509062423 69 3 0.0 0.9 0.00 0.00 0.00 83 1010.6
20260509061914 69 3 0.0 0.9 0.00 0.00 0.00 83 1010.7
20260509061904 69 3 0.0 0.9 0.00 0.00 0.00 83 1010.8
20260509061353 69 3 0.9 1.7 0.00 0.00 0.00 83 1011.0
20260509060343 70 3 0.0 3.5 0.00 0.00 0.00 83 1011.1
20260509055832 70 3 0.9 3.5 0.00 0.00 0.00 83 1010.6
20260509055323 70 3 1.7 6.1 0.00 0.00 0.00 83 1010.8
20260509054814 70 24 1.7 6.1 0.00 0.00 0.00 83 1011.0
20260509054304 70 11 2.6 6.1 0.00 0.00 0.00 82 1011.1
20260509053754 70 357 2.6 6.1 0.00 0.00 0.00 82 1011.0
20260509053243 70 28 2.6 7.0 0.00 0.00 0.00 81 1010.7
20260509052734 70 26 1.7 5.2 0.00 0.00 0.00 81 1010.7
20260509052223 70 82 0.0 0.0 0.00 0.00 0.00 81 1010.2
20260509051713 70 161 0.0 0.0 0.00 0.00 0.00 81 1009.9
20260509051204 70 164 0.0 0.0 0.00 0.00 0.00 80 1009.9
20260509050653 70 162 0.0 0.0 0.00 0.00 0.00 80 1010.0
20260509050143 70 160 0.0 1.7 0.00 0.00 0.00 80 1009.9
20260509045628 71 161 0.9 2.6 0.00 0.00 0.00 80 1009.8
20260509045118 71 161 0.9 2.6 0.00 0.00 0.00 80 1009.8
20260509044608 71 173 0.9 3.5 0.00 0.00 0.00 80 1009.7
20260509044059 71 178 0.9 3.5 0.00 0.00 0.00 80 1009.8
20260509043548 71 164 1.7 2.6 0.00 0.00 0.00 80 1009.8
20260509043038 71 162 1.7 6.1 0.00 0.00 0.00 80 1009.9
20260509042528 71 163 2.6 6.1 0.00 0.00 0.00 80 1010.0
20260509042017 71 158 0.9 4.3 0.00 0.00 0.00 79 1010.0
20260509041508 71 105 0.0 2.6 0.00 0.00 0.00 79 1010.2
20260509041459 71 120 0.0 0.0 0.00 0.00 0.00 79 1010.5
20260509040448 71 119 0.0 0.0 0.00 0.00 0.00 79 1010.4
20260509040439 72 118 0.0 3.5 0.00 0.00 0.00 78 1010.2
20260509035929 72 118 0.0 3.5 0.00 0.00 0.00 78 1010.2
20260509034918 72 118 0.9 5.2 0.00 0.00 0.00 78 1010.0
20260509034408 72 137 1.7 7.0 0.00 0.00 0.00 78 1009.9
20260509034400 72 130 2.6 7.0 0.00 0.00 0.00 78 1009.6
20260509033348 72 141 0.9 7.0 0.00 0.00 0.00 78 1009.5
20260509033339 72 122 1.7 6.1 0.00 0.00 0.00 78 1009.4
20260509032328 72 109 2.6 8.7 0.00 0.00 0.00 77 1009.3
20260509032319 72 143 2.6 8.7 0.00 0.00 0.00 77 1009.2
20260509031808 72 160 3.5 7.8 0.00 0.00 0.00 77 1009.0
20260509030758 72 136 2.6 7.8 0.00 0.00 0.00 77 1009.0
20260509030248 72 152 3.5 7.0 0.00 0.00 0.00 77 1009.1
20260509030240 72 155 3.5 8.7 0.00 0.00 0.00 77 1009.0
20260509025228 73 153 2.6 8.7 0.00 0.00 0.00 77 1008.9
20260509024718 73 138 2.6 7.0 0.00 0.00 0.00 77 1008.8
20260509024208 73 125 2.6 6.1 0.00 0.00 0.00 77 1008.6
20260509023651 73 111 3.5 8.7 0.00 0.00 0.00 77 1008.5
20260509023132 73 157 4.3 8.7 0.00 0.00 0.00 76 1008.4
20260509022623 73 130 3.5 7.8 0.00 0.00 0.00 76 1008.5
20260509022116 73 163 3.5 6.1 0.00 0.00 0.00 76 1008.6
20260509021610 73 141 2.6 6.1 0.00 0.00 0.00 76 1008.5
20260509021102 73 145 2.6 6.1 0.00 0.00 0.00 76 1008.6
20260509020552 73 135 1.7 6.1 0.00 0.00 0.00 76 1008.6
20260509020042 73 141 1.7 4.3 0.00 0.00 0.00 76 1008.6
20260509015532 73 141 1.7 4.3 0.00 0.00 0.00 76 1008.7
20260509015023 73 138 0.9 4.3 0.00 0.00 0.00 76 1008.7
20260509014514 73 115 0.0 3.5 0.00 0.00 0.00 76 1008.7
20260509014012 73 116 0.9 3.5 0.00 0.00 0.00 75 1008.6
20260509013508 73 96 0.9 3.5 0.00 0.00 0.00 75 1008.6
20260509013007 73 130 0.9 3.5 0.00 0.00 0.00 75 1008.6
20260509012507 73 139 0.9 3.5 0.00 0.00 0.00 75 1008.5
20260509012005 73 138 0.9 4.3 0.00 0.00 0.00 75 1008.5
20260509011510 73 173 0.9 2.6 0.00 0.00 0.00 75 1008.3
20260509011504 73 142 0.9 4.3 0.00 0.00 0.00 75 1008.4
20260509010502 73 157 0.9 2.6 0.00 0.00 0.00 74 1008.3
20260509010004 73 155 1.7 3.5 0.00 0.00 0.00 74 1008.2
20260509005456 73 149 2.6 5.2 0.00 0.00 0.00 74 1008.1
20260509004950 73 144 1.7 5.2 0.00 0.00 0.00 74 1008.0
20260509004441 73 147 1.7 4.3 0.00 0.00 0.00 74 1007.9
20260509003936 73 146 1.7 4.3 0.00 0.00 0.00 74 1007.9
20260509003436 73 141 2.6 6.1 0.00 0.00 0.00 73 1007.7
20260509003432 73 145 1.7 6.1 0.00 0.00 0.00 74 1007.8
20260509002425 74 159 1.7 5.2 0.00 0.00 0.00 73 1007.8
20260509001922 74 126 1.7 7.0 0.00 0.00 0.00 73 1007.9
20260509001422 74 186 2.6 5.2 0.00 0.00 0.00 73 1007.9
20260509001417 74 157 2.6 7.0 0.00 0.00 0.00 73 1008.0
20260509000913 74 132 2.6 5.2 0.00 0.00 0.00 73 1007.9
20260509000524 74 147 2.6 6.1 0.00 0.00 0.00 73 1008.1
20260508235907 73 155 1.7 6.1 0.00 0.00 0.00 73 1008.2
20260508235358 73 120 0.0 2.6 0.00 0.00 0.00 73 1008.2
20260508234349 73 152 0.9 3.5 0.00 0.00 0.00 73 1008.3
20260508233842 73 153 0.9 3.5 0.00 0.00 0.00 72 1008.2
20260508233333 73 158 1.7 5.2 0.00 0.00 0.00 72 1008.3
20260508232827 73 153 2.6 7.8 0.00 0.00 0.00 73 1008.3
20260508232319 73 181 1.7 7.8 0.00 0.00 0.00 72 1008.2
20260508231810 73 159 1.7 5.2 0.00 0.00 0.00 72 1008.3
20260508231803 73 141 2.6 4.3 0.00 0.00 0.00 72 1008.3
20260508231253 73 124 3.5 7.8 0.00 0.00 0.00 72 1008.2
20260508230244 73 185 3.5 7.8 0.00 0.00 0.00 71 1008.2
20260508225725 73 161 3.5 8.7 0.00 0.00 0.00 71 1008.2
20260508225215 74 164 3.5 8.7 0.00 0.00 0.00 70 1008.2
20260508224705 74 180 3.5 7.8 0.00 0.00 0.00 71 1008.2
20260508224155 74 186 4.3 12.2 0.00 0.00 0.00 71 1008.2
20260508224147 74 170 4.3 9.6 0.00 0.00 0.00 71 1008.2
20260508223135 73 192 4.3 10.4 0.00 0.00 0.00 71 1008.2
20260508222625 73 137 4.3 10.4 0.00 0.00 0.00 70 1008.3
20260508222125 74 197 3.5 9.6 0.00 0.00 0.00 71 1008.3
20260508221615 73 139 4.3 9.6 0.00 0.00 0.00 70 1008.4
20260508221106 73 168 4.3 9.6 0.00 0.00 0.00 70 1008.4
20260508220555 73 156 4.3 9.6 0.00 0.00 0.00 70 1008.5
20260508220044 73 151 4.3 10.4 0.00 0.00 0.00 70 1008.5
20260508215535 72 147 4.3 11.3 0.00 0.00 0.00 70 1008.6
20260508215026 73 142 4.3 11.3 0.00 0.00 0.00 68 1008.7
20260508214525 73 139 4.3 9.6 0.00 0.00 0.00 67 1008.8
20260508214015 73 161 3.5 9.6 0.00 0.00 0.00 69 1008.8
20260508213505 72 144 2.6 7.0 0.00 0.00 0.00 72 1008.8
20260508212955 71 154 3.5 8.7 0.00 0.00 0.00 72 1009.0
20260508212445 71 232 4.3 8.7 0.00 0.00 0.00 72 1009.2
20260508211935 72 232 4.3 9.6 0.00 0.00 0.00 70 1009.3